Previsão horária em Abapo

Hoje, 17 Abril, Sábado

Tempo Temperatura Precipitação Vento Pressão Humidade
00:00 +23°C° 0 mm 1 m/s 709 mmHg 82%
01:00 +22°C° 0 mm 1 m/s 709 mmHg 84%
02:00 +22°C° 0 mm 1 m/s 709 mmHg 87%
03:00 +22°C° 0 mm 1 m/s 709 mmHg 89%
04:00 +22°C° 0 mm 1 m/s 709 mmHg 90%
05:00 +21°C° 0 mm 1 m/s 709 mmHg 91%
06:00 +22°C° 0.1 mm 1 m/s 710 mmHg 87%
07:00 +24°C° 0.1 mm 1 m/s 711 mmHg 83%
08:00 +25°C° 0.1 mm 1 m/s 711 mmHg 79%
09:00 +27°C° 0.1 mm 1 m/s 711 mmHg 70%
10:00 +29°C° 0.1 mm 1 m/s 712 mmHg 60%
11:00 +32°C° 0.1 mm 1 m/s 712 mmHg 51%
12:00 +31°C° 0.3 mm 1 m/s 711 mmHg 55%
13:00 +31°C° 0.3 mm 1 m/s 710 mmHg 58%
14:00 +30°C° 0.3 mm 1 m/s 709 mmHg 62%
15:00 +29°C° 0.4 mm 1 m/s 709 mmHg 66%
16:00 +29°C° 0.4 mm 1 m/s 708 mmHg 69%
17:00 +28°C° 0.4 mm 1 m/s 708 mmHg 73%
18:00 +26°C° 0.2 mm 1 m/s 708 mmHg 79%
19:00 +25°C° 0.2 mm 1 m/s 709 mmHg 84%
20:00 +23°C° 0.2 mm 1 m/s 709 mmHg 90%
21:00 +23°C° 0 mm 1 m/s 710 mmHg 91%
22:00 +23°C° 0 mm 1 m/s 710 mmHg 92%
23:00 +23°C° 0 mm 1 m/s 710 mmHg 93%

Amanhã, 18 Abril, Domingo

Tempo Temperatura Precipitação Vento Pressão Humidade
00:00 +22°C° 0.1 mm 1 m/s 710 mmHg 94%
01:00 +22°C° 0.1 mm 1 m/s 710 mmHg 95%
02:00 +22°C° 0.1 mm 1 m/s 710 mmHg 96%
03:00 +22°C° 0.1 mm 1 m/s 709 mmHg 96%
04:00 +22°C° 0.1 mm 1 m/s 709 mmHg 96%
05:00 +21°C° 0.1 mm 1 m/s 709 mmHg 96%
06:00 +22°C° 0.3 mm 1 m/s 710 mmHg 95%
07:00 +21°C° 0.3 mm 0 m/s 711 mmHg 94%
08:00 +21°C° 0.3 mm 0 m/s 711 mmHg 93%
09:00 +25°C° 0.5 mm 1 m/s 711 mmHg 87%
10:00 +26°C° 0.5 mm 1 m/s 712 mmHg 80%
11:00 +28°C° 0.5 mm 1 m/s 712 mmHg 74%
12:00 +28°C° 1.2 mm 1 m/s 711 mmHg 76%
13:00 +28°C° 1.2 mm 1 m/s 710 mmHg 78%
14:00 +28°C° 1.2 mm 1 m/s 709 mmHg 80%
15:00 +27°C° 1.1 mm 1 m/s 709 mmHg 83%
16:00 +25°C° 1.1 mm 0 m/s 709 mmHg 86%
17:00 +24°C° 1.1 mm 0 m/s 709 mmHg 89%
18:00 +23°C° 1.4 mm 0 m/s 709 mmHg 91%
19:00 +24°C° 1.4 mm 1 m/s 710 mmHg 94%
20:00 +22°C° 1.4 mm 1 m/s 710 mmHg 96%
21:00 +22°C° 0 mm 1 m/s 710 mmHg 96%
22:00 +22°C° 0 mm 1 m/s 710 mmHg 96%
23:00 +22°C° 0 mm 1 m/s 711 mmHg 96%

Depois de amanhã, 19 Abril, Segunda-feira

Tempo Temperatura Precipitação Vento Pressão Humidade
00:00 +22°C° 0 mm 1 m/s 710 mmHg 96%
01:00 +22°C° 0 mm 1 m/s 710 mmHg 97%
02:00 +21°C° 0 mm 1 m/s 710 mmHg 97%
03:00 +21°C° 0 mm 1 m/s 710 mmHg 96%
04:00 +21°C° 0 mm 1 m/s 710 mmHg 96%
05:00 +21°C° 0 mm 1 m/s 710 mmHg 96%
06:00 +22°C° 0 mm 1 m/s 710 mmHg 95%
07:00 +22°C° 0 mm 1 m/s 711 mmHg 94%
08:00 +23°C° 0 mm 1 m/s 711 mmHg 92%
09:00 +24°C° 0.1 mm 1 m/s 712 mmHg 85%
10:00 +26°C° 0.1 mm 1 m/s 712 mmHg 77%
11:00 +28°C° 0.1 mm 1 m/s 712 mmHg 70%
12:00 +29°C° 0.2 mm 1 m/s 711 mmHg 63%
13:00 +31°C° 0.2 mm 1 m/s 710 mmHg 56%
14:00 +32°C° 0.2 mm 2 m/s 709 mmHg 49%
15:00 +30°C° 0.2 mm 1 m/s 709 mmHg 58%
16:00 +29°C° 0.2 mm 1 m/s 709 mmHg 67%
17:00 +27°C° 0.2 mm 1 m/s 708 mmHg 76%
18:00 +26°C° 0.2 mm 1 m/s 709 mmHg 81%
19:00 +23°C° 0.2 mm 0 m/s 709 mmHg 86%
20:00 +22°C° 0.2 mm 0 m/s 710 mmHg 91%
21:00 +21°C° 0.2 mm 0 m/s 710 mmHg 92%
22:00 +21°C° 0.2 mm 0 m/s 710 mmHg 93%
23:00 +21°C° 0.2 mm 0 m/s 710 mmHg 94%

20 Abril, Terça-feira

Tempo Temperatura Precipitação Vento Pressão Humidade
00:00 +20°C° 0 mm 0 m/s 710 mmHg 94%
01:00 +22°C° 0 mm 1 m/s 709 mmHg 95%
02:00 +22°C° 0 mm 1 m/s 709 mmHg 95%
03:00 +22°C° 0 mm 1 m/s 709 mmHg 95%
04:00 +21°C° 0 mm 1 m/s 709 mmHg 96%
05:00 +21°C° 0 mm 1 m/s 709 mmHg 96%
06:00 +20°C° 0 mm 0 m/s 709 mmHg 93%
07:00 +21°C° 0 mm 0 m/s 710 mmHg 91%
08:00 +22°C° 0 mm 0 m/s 710 mmHg 88%
09:00 +26°C° 0 mm 1 m/s 710 mmHg 76%
10:00 +29°C° 0 mm 1 m/s 710 mmHg 64%
11:00 +31°C° 0 mm 2 m/s 710 mmHg 52%
12:00 +32°C° 0 mm 2 m/s 709 mmHg 51%
13:00 +33°C° 0 mm 3 m/s 708 mmHg 50%
14:00 +33°C° 0 mm 3 m/s 708 mmHg 49%
15:00 +33°C° 0 mm 3 m/s 707 mmHg 52%
16:00 +31°C° 0 mm 3 m/s 707 mmHg 54%
17:00 +30°C° 0 mm 2 m/s 707 mmHg 57%
18:00 +29°C° 0 mm 2 m/s 707 mmHg 64%
19:00 +27°C° 0 mm 1 m/s 708 mmHg 71%
20:00 +26°C° 0 mm 1 m/s 708 mmHg 78%
21:00 +25°C° 0 mm 1 m/s 708 mmHg 82%
22:00 +25°C° 0 mm 1 m/s 708 mmHg 85%
23:00 +22°C° 0 mm 0 m/s 709 mmHg 89%

21 Abril, Quarta-feira

Tempo Temperatura Precipitação Vento Pressão Humidade
00:00 +22°C° 0 mm 0 m/s 708 mmHg 92%
01:00 +21°C° 0 mm 0 m/s 708 mmHg 94%
02:00 +21°C° 0 mm 0 m/s 708 mmHg 97%
03:00 +20°C° 0 mm 0 m/s 707 mmHg 97%
04:00 +20°C° 0 mm 0 m/s 707 mmHg 97%
05:00 +20°C° 0 mm 0 m/s 707 mmHg 98%
06:00 +21°C° 0 mm 0 m/s 708 mmHg 94%
07:00 +21°C° 0 mm 0 m/s 708 mmHg 90%
08:00 +22°C° 0 mm 0 m/s 708 mmHg 87%
09:00 +27°C° 0 mm 1 m/s 708 mmHg 76%
10:00 +29°C° 0 mm 1 m/s 708 mmHg 65%
11:00 +32°C° 0 mm 2 m/s 708 mmHg 54%
12:00 +34°C° 0 mm 2 m/s 707 mmHg 48%
13:00 +36°C° 0 mm 3 m/s 706 mmHg 43%
14:00 +37°C° 0 mm 4 m/s 705 mmHg 37%
15:00 +36°C° 0 mm 4 m/s 704 mmHg 43%
16:00 +34°C° 0 mm 4 m/s 704 mmHg 49%
17:00 +32°C° 0 mm 5 m/s 704 mmHg 55%
18:00 +29°C° 0 mm 4 m/s 704 mmHg 65%
19:00 +27°C° 0 mm 3 m/s 705 mmHg 74%
20:00 +25°C° 0 mm 2 m/s 705 mmHg 84%
21:00 +25°C° 0 mm 2 m/s 706 mmHg 85%
22:00 +24°C° 0 mm 1 m/s 706 mmHg 87%
23:00 +24°C° 0 mm 1 m/s 706 mmHg 89%

22 Abril, Quinta-feira

Tempo Temperatura Precipitação Vento Pressão Humidade
00:00 +23°C° 0 mm 1 m/s 706 mmHg 90%
01:00 +23°C° 0 mm 1 m/s 706 mmHg 92%
02:00 +23°C° 0 mm 1 m/s 706 mmHg 93%
03:00 +23°C° 0 mm 1 m/s 705 mmHg 93%
04:00 +22°C° 0 mm 1 m/s 705 mmHg 93%
05:00 +22°C° 0 mm 1 m/s 705 mmHg 93%
06:00 +23°C° 0 mm 1 m/s 705 mmHg 89%
07:00 +24°C° 0 mm 1 m/s 706 mmHg 85%
08:00 +25°C° 0 mm 1 m/s 706 mmHg 81%
09:00 +28°C° 0 mm 1 m/s 706 mmHg 68%
10:00 +31°C° 0 mm 2 m/s 706 mmHg 56%
11:00 +35°C° 0 mm 2 m/s 705 mmHg 43%
12:00 +37°C° 0 mm 2 m/s 705 mmHg 39%
13:00 +38°C° 0 mm 3 m/s 704 mmHg 35%
14:00 +39°C° 0 mm 3 m/s 703 mmHg 31%
15:00 +38°C° 0 mm 4 m/s 703 mmHg 36%
16:00 +36°C° 0 mm 4 m/s 702 mmHg 42%
17:00 +34°C° 0 mm 5 m/s 702 mmHg 47%
18:00 +30°C° 0.4 mm 3 m/s 703 mmHg 63%
19:00 +27°C° 0.4 mm 2 m/s 704 mmHg 79%
20:00 +23°C° 0.4 mm 1 m/s 705 mmHg 95%
21:00 +23°C° 0 mm 1 m/s 705 mmHg 95%
22:00 +23°C° 0 mm 1 m/s 706 mmHg 96%
23:00 +22°C° 0 mm 1 m/s 706 mmHg 96%
Mostrar mais